[[{"header":{"parameterUnit":"m.s-1","parameterCategory":1,"la1":30.2991,"la2":30.254,"lo1":-89.0895,"lo2":-89.0444,"dy":0.0017,"dx":0.0017,"nx":28,"ny":28,"refTime":"2024-04-08T21:00:00:Z","depth":0,"parameterNumber":2,"parameterNumberName":"U-component_of_WINDS"},"data":[0,0,0,0,0,0,0,0,0,0,0,0,0,0,0,0,0,0,0,0,0,0,0,0,0,0,0,0,0,0,0,0,0,0,0,0,0,0,0,0,0,0,0,0,0,0,0,0,0,0,0,0,0,0,0,0,0,0,-7.1345,-7.1347,0,-7.1502,-7.1504,-7.1505,-7.1528,-7.1527,-7.1525,-7.1524,-7.1678,-7.1683,-7.1689,0,0,0,0,0,0,0,0,0,0,0,0,0,-7.106,-7.1065,-7.1345,-7.1347,-7.1349,-7.1501,-7.1504,-7.1506,-7.1528,-7.1527,-7.1525,-7.1523,-7.1676,-7.1683,-7.1689,0,0,0,0,0,0,0,0,0,0,0,0,0,-7.1197,-7.1067,-7.1344,-7.1379,-7.1383,-7.1501,-7.1504,-7.1506,-7.1529,-7.1527,-7.1525,-7.1523,-7.1674,-7.1682,-7.169,-7.1783,0,0,-7.1715,-7.1718,0,0,0,0,0,0,0,0,-7.1189,-7.1207,-7.1372,-7.1376,-7.1382,-7.1493,-7.146,-7.1599,-7.1529,-7.1473,-7.1524,-7.1522,-7.1618,-7.1631,-7.1664,-7.179,-7.1797,-7.1716,-7.1721,-7.1724,-7.1726,0,0,0,0,0,0,0,-7.1179,-7.12,-7.1407,-7.1374,-7.138,-7.1385,-7.1402,-7.1486,-7.1555,-7.1478,-7.148,-7.1499,-7.162,-7.1657,-7.1668,-7.1799,-7.1715,-7.1723,-7.1728,-7.1731,-7.2009,-7.2011,0,0,0,0,0,0,-7.1165,-7.1192,-7.1402,-7.1411,-7.1278,-7.1391,-7.1411,-7.146,-7.1555,-7.1567,-7.15,-7.1499,-7.1644,-7.1659,-7.1674,-7.1788,-7.1724,-7.1732,-7.1736,-7.2006,-7.2009,-7.2012,0,0,0,0,0,0,-7.1158,-7.1183,-7.1395,-7.1303,-7.133,-7.1399,-7.1453,-7.1464,-7.15,-7.1572,-7.1583,-7.1525,-7.1643,-7.1662,-7.1756,-7.1794,-7.1735,-7.1743,-7.2003,-7.2007,-7.2011,-7.2017,0,0,0,0,0,0,-7.115,-7.1181,-7.1217,-7.1303,-7.1335,-7.1476,-7.1456,-7.1468,-7.1515,-7.1515,-7.1598,-7.1609,-7.1642,-7.1744,-7.1764,-7.1804,-7.1749,-7.2,-7.2005,-7.201,-7.2014,-7.2021,-7.2027,0,0,0,0,0,-7.114,-7.1211,-7.1219,-7.1244,-7.1383,-7.1478,-7.1496,-7.1535,-7.1518,-7.1555,-7.1601,-7.1607,-7.1787,-7.1753,-7.1776,-7.1819,-7.1998,-7.2004,-7.2009,-7.2011,-7.2019,-7.2027,0,0,0,0,0,0,-7.1125,-7.1223,-7.1233,-7.1335,-7.1398,-7.1482,-7.1529,-7.1542,-7.161,-7.1607,-7.165,-7.1669,-7.176,-7.18,-7.176,-7.1914,-7.1891,-7.1901,-7.1884,-7.1893,-7.1899,-7.1886,-7.1756,0,0,0,0,0,-7.1134,-7.1206,-7.1287,-7.1369,-7.1401,-7.146,-7.1503,-7.1528,-7.1594,-7.1621,-7.1674,-7.1736,-7.1808,-7.1853,-7.1922,-7.2021,-7.2039,-7.2062,-7.2068,-7.2073,-7.2081,-7.2135,-7.2146,-7.2031,-7.2031,-7.203,0,0,-7.1152,-7.1215,-7.1257,-7.1368,-7.142,-7.1491,-7.1482,-7.1558,-7.161,-7.1631,-7.1723,-7.1765,-7.1838,-7.1935,-7.198,-7.197,-7.2117,-7.208,-7.2084,-7.2089,-7.2142,-7.2153,-7.2163,-7.2034,-7.2034,-7.2033,0,0,-7.1222,-7.1277,-7.1352,-7.1405,-7.1486,-7.1525,-7.1543,-7.1626,-7.1655,-7.1749,-7.1766,-7.183,-7.1951,-7.2002,-7.2044,-7.2137,-7.2144,-7.2159,-7.219,-7.2243,-7.2252,-7.226,-7.2292,-7.2303,-7.2167,-7.2167,-7.2167,0,-7.1233,-7.1343,-7.1387,-7.1464,-7.1511,-7.1537,-7.1612,-7.1661,-7.1759,-7.1791,-7.1779,-7.1934,-7.1985,-7.2093,-7.2117,-7.215,-7.2171,-7.2147,-7.2248,-7.2257,-7.2265,-7.2295,-7.2307,-7.2168,-7.2167,-7.2167,-7.2167,0,-7.1353,-7.1429,-7.148,-7.1576,-7.163,-7.1705,-7.1759,-7.1808,-7.1829,-7.187,-7.1965,-7.2028,-7.211,-7.2139,-7.2159,-7.2251,-7.2243,-7.224,-7.2216,-7.2276,-7.2305,-7.2317,-7.2169,-7.2169,-7.2168,-7.2168,0,0,-7.1413,-7.1537,-7.1554,-7.1598,-7.1691,-7.1749,-7.1826,-7.1909,-7.195,-7.2018,-7.2081,-7.2185,-7.2183,-7.2231,-7.2258,-7.2305,-7.2373,-7.2296,-7.2298,-7.2306,-7.2477,-7.2477,-7.2489,-7.238,-7.2383,-7.2385,-7.247,0,-7.1492,-7.163,-7.1673,-7.1788,-7.1859,-7.1886,-7.1952,-7.2015,-7.2056,-7.212,-7.2165,-7.2237,-7.223,-7.2259,-7.2307,-7.2354,-7.2407,-7.2349,-7.2437,-7.244,-7.2415,-7.2505,-7.2505,-7.2582,-7.2482,-7.2484,-7.2485,0,-7.1601,-7.1673,-7.1795,-7.188,-7.1911,-7.197,-7.2051,-7.2113,-7.2185,-7.2211,-7.2267,-7.229,-7.2369,-7.2345,-7.2454,-7.2414,-7.2453,-7.2482,-7.2486,-7.2493,-7.2464,-7.2512,-7.2608,-7.2618,-7.2504,-7.2503,-7.2501,0,-7.163,-7.1758,-7.1848,-7.1886,-7.1987,-7.2028,-7.2071,-7.2142,-7.219,-7.226,-7.2291,-7.2369,-7.2411,-7.247,-7.2514,-7.2493,-7.2619,-7.2598,-7.2641,-7.264,-7.2663,-7.266,-7.2764,-7.2693,-7.2693,-7.2693,-7.2692,0,-7.1711,-7.1785,-7.1863,-7.1917,-7.2001,-7.205,-7.213,-7.2175,-7.2238,-7.2301,-7.233,-7.2388,-7.2444,-7.2509,-7.2544,-7.2629,-7.2648,-7.267,-7.2677,-7.2666,-7.2662,-7.2689,-7.2684,-7.2696,-7.2695,-7.2695,-7.2694,0,-7.1756,-7.1812,-7.1912,-7.2001,-7.2025,-7.2082,-7.2158,-7.2211,-7.2255,-7.2334,-7.2356,-7.2423,-7.2502,-7.2552,-7.2652,-7.2675,-7.2767,-7.2775,-7.2743,-7.2746,-7.2785,-7.2779,-7.2907,-7.2925,-7.2844,-7.2845,-7.2846,0,-7.1803,-7.186,-7.1957,-7.2003,-7.2047,-7.212,-7.217,-7.2222,-7.2272,-7.236,-7.2403,-7.2484,-7.2552,-7.2676,-7.2732,-7.2809,-7.2817,-7.2856,-7.2828,-7.2814,-7.2815,-7.281,-7.2815,-7.2859,-7.286,-7.2861,-7.2861,0,-7.1879,-7.1905,-7.1977,-7.2059,-7.2118,-7.2185,-7.2251,-7.2286,-7.2349,-7.2404,-7.2486,-7.2539,-7.2643,-7.2722,-7.2804,-7.2848,-7.2864,-7.2871,-7.2884,-7.287,-7.2849,-7.2859,-7.2752,-7.2866,-7.2866,-7.2865,-7.2865,-7.2865,-7.1925,-7.1978,-7.2054,-7.2133,-7.219,-7.2252,-7.2307,-7.2358,-7.2429,-7.2518,-7.2544,-7.263,-7.2702,-7.2814,-7.286,-7.2926,-7.2921,-7.2941,-7.2945,-7.2949,-7.2948,-7.2841,-7.2942,-7.2942,-7.2942,-7.2941,-7.2941,0,-7.2001,-7.2053,-7.2126,-7.2219,-7.2281,-7.2296,-7.237,-7.242,-7.2496,-7.2563,-7.263,-7.2724,-7.2803,-7.2867,-7.2947,-7.2988,-7.2997,-7.3007,-7.3003,-7.3012,-7.2949,-7.2929,-7.2998,-7.2998,-7.2998,-7.2998,-7.2998,-7.2998,-7.2048,-7.2137,-7.2172,-7.229,-7.2341,-7.2426,-7.2467,-7.2524,-7.2578,-7.2683,-7.2749,-7.2792,-7.2857,-7.2943,-7.3015,-7.3032,-7.3059,-7.3066,-7.3084,-7.3023,-7.3017,-7.301,-7.2991,-7.3073,-7.3073,-7.3142,-7.3142,-7.3143]},{"header":{"parameterUnit":"m.s-1","parameterCategory":1,"la1":30.2991,"la2":30.254,"lo1":-89.0895,"lo2":-89.0444,"dy":0.0017,"dx":0.0017,"nx":28,"ny":28,"refTime":"2024-04-08T21:00:00:Z","depth":0,"parameterNumber":3,"parameterNumberName":"V-component_of_WINDS"},"data":[0,0,0,0,0,0,0,0,0,0,0,0,0,0,0,0,0,0,0,0,0,0,0,0,0,0,0,0,0,0,0,0,0,0,0,0,0,0,0,0,0,0,0,0,0,0,0,0,0,0,0,0,0,0,0,0,0,0,7.432,7.432,0,7.4343,7.4344,7.4344,7.4293,7.4291,7.429,7.4288,7.431,7.4312,7.4314,0,0,0,0,0,0,0,0,0,0,0,0,0,7.4231,7.4232,7.432,7.432,7.4321,7.4343,7.4344,7.4344,7.4293,7.4291,7.4289,7.4287,7.4309,7.4311,7.4314,0,0,0,0,0,0,0,0,0,0,0,0,0,7.4263,7.4233,7.432,7.4298,7.4296,7.4343,7.4344,7.4344,7.4294,7.4291,7.4289,7.4286,7.4308,7.4311,7.4314,7.4383,0,0,7.4324,7.4325,0,0,0,0,0,0,0,0,7.4261,7.4266,7.4301,7.43,7.4298,7.4313,7.432,7.4357,7.4294,7.4295,7.4288,7.4285,7.4313,7.4315,7.4325,7.4384,7.4385,7.4324,7.4326,7.4327,7.4328,0,0,0,0,0,0,0,7.4259,7.4265,7.4329,7.4302,7.43,7.4287,7.4289,7.4327,7.4317,7.4294,7.4291,7.4294,7.4311,7.4322,7.4325,7.4385,7.4324,7.4327,7.4329,7.433,7.4503,7.4506,0,0,0,0,0,0,7.426,7.4264,7.4328,7.433,7.4273,7.429,7.4293,7.431,7.4316,7.4315,7.4296,7.4292,7.4318,7.4321,7.4326,7.4408,7.4327,7.433,7.4332,7.4501,7.4504,7.4507,0,0,0,0,0,0,7.4258,7.4266,7.4327,7.4296,7.4303,7.4295,7.4315,7.4312,7.4323,7.4318,7.4316,7.4309,7.4316,7.4321,7.437,7.4408,7.4332,7.4335,7.4497,7.4502,7.4505,7.4572,0,0,0,0,0,0,7.4256,7.4266,7.4292,7.4297,7.4305,7.4372,7.4317,7.4314,7.4329,7.4323,7.433,7.4328,7.4314,7.4365,7.4373,7.4411,7.4337,7.4494,7.4499,7.4504,7.4566,7.4578,7.4588,0,0,0,0,0,7.4253,7.4309,7.4294,7.4302,7.4337,7.4374,7.4378,7.4362,7.4332,7.4358,7.4355,7.4328,7.4402,7.4371,7.4379,7.4418,7.4491,7.4498,7.4504,7.4562,7.4576,7.4587,0,0,0,0,0,0,7.4307,7.4309,7.4292,7.4351,7.4363,7.4365,7.4398,7.4377,7.4397,7.4391,7.4369,7.4371,7.4424,7.4425,7.439,7.4486,7.4442,7.445,7.4483,7.4496,7.4507,7.4506,7.434,0,0,0,0,0,7.4327,7.4357,7.4356,7.4409,7.4416,7.4406,7.4421,7.4408,7.4419,7.4423,7.4424,7.4435,7.4461,7.4478,7.4502,7.4566,7.4567,7.4597,7.4608,7.4617,7.4624,7.466,7.4674,7.4527,7.4527,7.4527,0,0,7.4366,7.4371,7.4391,7.442,7.4427,7.446,7.441,7.4446,7.4469,7.4428,7.4475,7.4476,7.4487,7.4544,7.4569,7.4547,7.4665,7.4624,7.4631,7.4634,7.4668,7.4682,7.4695,7.4531,7.453,7.453,0,0,7.4455,7.4461,7.4507,7.4516,7.4528,7.4521,7.4532,7.4538,7.4538,7.4584,7.4555,7.4582,7.4627,7.4636,7.4647,7.4742,7.4718,7.475,7.4806,7.4841,7.4853,7.4863,7.4899,7.4911,7.4757,7.4757,7.4757,0,7.4503,7.455,7.4532,7.4571,7.4585,7.455,7.4596,7.4605,7.4625,7.4635,7.461,7.4667,7.4672,7.4732,7.4755,7.4764,7.4777,7.4749,7.4853,7.4863,7.4872,7.4906,7.4919,7.4761,7.476,7.476,7.476,0,7.4609,7.4643,7.4678,7.4699,7.4717,7.4759,7.4747,7.4767,7.4753,7.4749,7.4797,7.4802,7.4827,7.4839,7.4825,7.4898,7.4884,7.4856,7.4812,7.489,7.4922,7.4934,7.4767,7.4765,7.4764,7.4763,0,0,7.4733,7.4745,7.4759,7.4769,7.4781,7.4806,7.4847,7.4872,7.4891,7.4905,7.4939,7.4978,7.4953,7.4966,7.4951,7.4982,7.5059,7.4951,7.4951,7.4972,7.5143,7.5166,7.5181,7.5043,7.5045,7.5047,7.5143,0,7.4823,7.4895,7.488,7.495,7.4982,7.495,7.4985,7.4996,7.4994,7.502,7.5017,7.5046,7.5009,7.5017,7.5046,7.5044,7.5094,7.5037,7.5076,7.5077,7.5076,7.5197,7.522,7.531,7.5155,7.5157,7.5158,0,7.4938,7.4959,7.5032,7.5041,7.5054,7.5086,7.5109,7.5134,7.5146,7.5142,7.5157,7.5138,7.5178,7.5132,7.5189,7.515,7.5165,7.5167,7.517,7.5174,7.5124,7.5206,7.5338,7.5353,7.5177,7.5175,7.5174,0,7.5024,7.507,7.5121,7.513,7.514,7.5164,7.517,7.5179,7.5196,7.5216,7.5227,7.525,7.5264,7.5282,7.527,7.5238,7.5329,7.5282,7.5328,7.5329,7.535,7.5349,7.5488,7.5357,7.5356,7.5356,7.5356,0,7.5127,7.5174,7.516,7.5191,7.5243,7.5226,7.5277,7.5278,7.5288,7.5319,7.5291,7.5321,7.5302,7.533,7.532,7.5369,7.5375,7.5373,7.537,7.5377,7.5378,7.5388,7.5382,7.536,7.5359,7.5358,7.5358,0,7.5233,7.5225,7.5279,7.5285,7.5288,7.5326,7.5331,7.536,7.5356,7.5395,7.5404,7.5397,7.5429,7.5418,7.5451,7.5445,7.5508,7.5496,7.5505,7.5503,7.555,7.5547,7.5702,7.5723,7.5576,7.5577,7.5579,0,7.5301,7.5336,7.5347,7.5366,7.5374,7.5405,7.5423,7.5407,7.5426,7.5444,7.5471,7.5501,7.5524,7.5576,7.5574,7.56,7.559,7.5642,7.5593,7.56,7.5593,7.5592,7.5596,7.5653,7.5654,7.5656,7.5657,0,7.5422,7.5417,7.5444,7.547,7.5492,7.5511,7.5528,7.5545,7.553,7.5553,7.5586,7.5604,7.564,7.567,7.5693,7.5698,7.5676,7.5672,7.5685,7.5693,7.5697,7.5698,7.5534,7.5669,7.5668,7.5667,7.5666,7.5666,7.5512,7.5543,7.5557,7.5588,7.5599,7.5616,7.5644,7.5644,7.5671,7.57,7.5688,7.5727,7.5739,7.5768,7.5777,7.5806,7.5786,7.5803,7.5808,7.5813,7.5821,7.5691,7.581,7.581,7.5809,7.5809,7.5809,0,7.5635,7.5642,7.567,7.5696,7.5721,7.5697,7.5715,7.5737,7.5772,7.5785,7.5809,7.5848,7.5877,7.5878,7.5905,7.5929,7.592,7.5937,7.5936,7.5938,7.5836,7.5824,7.5944,7.5944,7.5944,7.5944,7.5944,7.5944,7.5701,7.5753,7.575,7.5807,7.5813,7.5852,7.5865,7.588,7.5891,7.5936,7.5961,7.5961,7.5969,7.5998,7.6024,7.6023,7.6035,7.6057,7.6053,7.5958,7.5945,7.5932,7.5921,7.606,7.606,7.6153,7.6154,7.6154]}]]